TimeCST,TemperatureF,Dew PointF,Humidity,Sea Level PressureIn,VisibilityMPH,Wind Direction,Wind SpeedMPH,Gust SpeedMPH,PrecipitationIn,Events,Conditions,WindDirDegrees,DateUTC
12:53 AM,28.0,21.0,75,30.30,10.0,Calm,Calm,-,N/A,,Clear,0,2013-01-06 06:53:00
1:53 AM,28.0,21.0,75,30.32,10.0,Calm,Calm,-,N/A,,Clear,0,2013-01-06 07:53:00
2:53 AM,30.9,23.0,72,30.33,10.0,Calm,Calm,-,N/A,,Clear,0,2013-01-06 08:53:00
3:53 AM,28.9,21.9,75,30.34,10.0,Calm,Calm,-,N/A,,Clear,0,2013-01-06 09:53:00
4:53 AM,28.9,21.9,75,30.35,10.0,Calm,Calm,-,N/A,,Clear,0,2013-01-06 10:53:00
5:53 AM,28.9,21.9,75,30.37,10.0,Calm,Calm,-,N/A,,Clear,0,2013-01-06 11:53:00
6:53 AM,27.0,19.9,75,30.38,10.0,Calm,Calm,-,N/A,,Clear,0,2013-01-06 12:53:00
7:53 AM,24.1,18.0,77,30.41,10.0,Calm,Calm,-,N/A,,Clear,0,2013-01-06 13:53:00
8:53 AM,33.1,23.0,66,30.43,10.0,Calm,Calm,-,N/A,,Clear,0,2013-01-06 14:53:00
10:53 AM,39.0,21.0,49,30.45,10.0,North,5.8,-,N/A,,Clear,350,2013-01-06 16:53:00
11:53 AM,42.1,19.9,41,30.43,10.0,Variable,4.6,-,N/A,,Clear,0,2013-01-06 17:53:00
12:53 PM,45.0,19.0,36,30.40,10.0,Variable,5.8,-,N/A,,Clear,0,2013-01-06 18:53:00
1:53 PM,48.9,19.0,31,30.37,10.0,Calm,Calm,-,N/A,,Clear,0,2013-01-06 19:53:00
2:53 PM,46.9,18.0,32,30.36,10.0,Calm,Calm,-,N/A,,Clear,0,2013-01-06 20:53:00
3:53 PM,48.0,19.9,33,30.36,10.0,East,3.5,-,N/A,,Clear,80,2013-01-06 21:53:00
4:53 PM,44.1,19.0,37,30.36,10.0,ESE,3.5,-,N/A,,Clear,120,2013-01-06 22:53:00
5:53 PM,30.9,19.9,64,30.36,10.0,Calm,Calm,-,N/A,,Clear,0,2013-01-06 23:53:00
6:53 PM,28.0,19.9,72,30.37,10.0,Calm,Calm,-,N/A,,Clear,0,2013-01-07 00:53:00
7:53 PM,24.1,19.0,81,30.37,10.0,Calm,Calm,-,N/A,,Clear,0,2013-01-07 01:53:00
9:53 PM,19.9,17.1,89,30.38,10.0,Calm,Calm,-,N/A,,Clear,0,2013-01-07 03:53:00
10:53 PM,19.9,17.1,89,30.37,10.0,Calm,Calm,-,N/A,,Clear,0,2013-01-07 04:53:00
11:53 PM,19.0,16.0,88,30.37,10.0,Calm,Calm,-,N/A,,Clear,0,2013-01-07 05:53:00